User: anonymous   Login
Location: *
(35.8942°N, 23.3025°E)
Time: 10:16:39
(UTC+00:00)
Language:

Meteor 1-27 Rocket - Orbit

View from above orbital plane
View from above orbital plane
View from above satellite
View from above satellite

Ground track
Ground track

The orbit data is extracted from the following two-line orbital elements,

1 09904U 77024B   21340.78012575  .00000234  00000-0  13081-3 0  9992
2 09904  81.2619 351.2880 0055261  47.1548 313.4244 14.06916860292269
Epoch (UTC): 06 December 2021 18:43:22
Eccentricity: 0.0055261
inclination: 81.2619°
perigee height: 830 km
apogee height: 910 km
right ascension of ascending node: 351.2880°
argument of perigee: 47.1548°
revolutions per day: 14.06916860
mean anomaly at epoch: 313.4244°
orbit number at epoch: 29226

The dashed part of the orbit path shows where the satellite is in the earth's shadow,  

DLR